www.pogodaiklimat.ru

Погода и климат >> Архив погоды >> Ирак >> Эр-Рамади


ПОГОДА в Эр-Рамади

  • Прогноз погоды в Эр-Рамади
  • Монитор погоды в Эр-Рамади

АРХИВ ПОГОДЫ в Эр-Рамади

Время (UTC), дата Ветер
(напр.,м/с)
 
Видим.   Явления Облачность Т
(С)
Тd
(С)
f
(%)
Тe
(С)
Тes
(С)
Комфортность P
(гПа)
Po
(гПа)
Тmin
(С)
Tmax
(С)
R
(мм)
R24
(мм)
S
(см)
06 16.08 С 2 10 км ясно +33.8 +16.1 35 +36 +47 очень
душно
1004.9 999.5 +30.7
12 16.08 СЗ 3 10 км ясно +42.5 +13.6 18 +42 +52 опасность
перегрева
1003.5 998.3
15 16.08 СЗ 3 10 км ясно +40.6 +13.1 20 +41 +41 опасность
перегрева
1002.4 997.2
18 16.08 С 2 10 км ясно +35.4 +12.6 25 +35 +35 очень
жарко
1003.5 998.2 +43.4
03 17.08 СЗ 2 10 км ясно +25.8 +9.9 37 +27 +27 жарко 1003.1 997.6
06 17.08 СЗ 3 10 км ясно +33.0 +15.4 35 +35 +44 душно 1003.4 998.0 +25.6
09 17.08 С 3 10 км ясно +39.1 +14.5 23 +40 +56 опасность
солнечного
удара
1003.1 997.8
15 17.08 СЗ 2 10 км ясно +39.7 +15.5 24 +41 +41 опасность
перегрева
999.7 994.5
18 17.08 СЗ 2 10 км ясно +35.5 +20.4 41 +42 +42 опасность
перегрева
1000.3 995.0 +41.6
03 18.08 С 2 10 км ясно +29.7 +16.5 45 +33 +33 душно 1001.3 995.9
09 18.08 З 3 10 км ясно +40.4 +18.9 29 +45 +61 опасность
перегрева
1002.0 996.8
15 18.08 С 3 10 км ясно +41.7 +17.1 24 +44 +44 опасность
перегрева
1001.5 996.3
18 18.08 С 2 10 км ясно +36.0 +24.6 52 +49 +49 опасность
перегрева
1002.8 997.5 +43.6
03 19.08 штиль 0 10 км ясно +28.9 +19.2 56 +34 +35 очень
душно
1005.0 999.6
06 19.08 З 2 10 км ясно +34.6 +19.2 40 +40 +50 очень
душно
1006.3 1001.0 +28.6
09 19.08 штиль 0 10 км ясно +41.6 +22.5 34 +50 +76 опасность
перегрева
1005.9 1000.7
12 19.08 штиль 0 10 км ясно +44.8 +22.1 28 +52 +67 опасность
перегрева
1004.6 999.4
15 19.08 В 1 10 км ясно +42.5 +22.6 32 +50 +51 опасность
перегрева
1004.7 999.5
18 19.08 штиль 0 10 км ясно +35.5 +24.0 52 +47 +47 опасность
перегрева
1005.2 999.9 +45.4
03 20.08 С 2 10 км ясно +29.0 +18.1 52 +34 +34 очень
душно
1006.0 1000.6
06 20.08 Ю 1 10 км ясно +35.6 +20.9 42 +42 +54 опасность
перегрева
1006.7 1001.4 +28.7
09 20.08 штиль 0 10 км ясно +43.4 +21.3 29 +50 +76 опасность
перегрева
1006.5 1001.3
12 20.08 СЗ 2 10 км ясно +46.6 +20.8 24 +53 +64 опасность
перегрева
1005.1 1000.0
15 20.08 штиль 0 10 км ясно +44.0 +24.3 33 +54 +55 опасность
перегрева
1004.6 999.4
18 20.08 штиль 0 10 км ясно +36.2 +21.6 43 +44 +44 опасность
перегрева
1004.8 999.5 +47.2
03 21.08 С 3 10 км ясно +30.0 +11.4 32 +31 +31 жарко 1005.6 1000.2
06 21.08 СЗ 3 10 км ясно +34.2 +15.8 33 +36 +45 душно 1006.7 1001.3 +29.8
09 21.08 СЗ 2 10 км ясно +41.8 +17.2 24 +44 +63 опасность
перегрева
1006.1 1000.9
15 21.08 СЗ 2 10 км ясно +41.8 +14.4 20 +42 +43 опасность
перегрева
1004.0 998.8
18 21.08 СЗ 2 10 км ясно +36.4 +14.2 27 +37 +37 очень
жарко
1005.3 1000.0 +44.0
03 22.08 СЗ 2 10 км ясно +26.4 +16.7 55 +30 +30 душно 1006.2 1000.7
06 22.08 С 3 10 км ясно +32.8 +17.2 39 +36 +44 очень
душно
1007.0 1001.6 +26.2
09 22.08 СЗ 3 10 км ясно +38.4 +14.8 25 +39 +55 опасность
солнечного
удара
1006.4 1001.1
15 22.08 СЗ 2 10 км ясно +39.7 +12.5 20 +39 +40 очень
жарко
1004.7 999.4
03 23.08 СЗ 2 10 км ясно +26.3 +15.9 53 +30 +30 душно 1006.8 1001.3

 

Местоположение метеостанции Эр-Рамади (Ирак): широта 33.45 долгота 43.32 высота над уровнем моря 48 м.

В архиве по умолчанию представлена погода в Эр-Рамади за последнюю неделю. Архивные данные за месяц целиком и за предыдущие месяцы, начиная с января 2011 года, Вы можете получить, выбрав интересующий диапазон дат из раскрывающегося списка и нажав кнопку "Ввод!".


*Определитесь, кто Вы:
робот инопланетянин человек

Внимание! Время в таблицах - всемирное. Для получения местного времени необходимо прибавить поправку, которая равна 3 ч.

Смотрите также архив погоды в соседних городах и на ближайших метеорологических станциях:

Погода в Хите (Ирак) (45 км)
Погода в Багдаде (Ирак) (88 км)
Погода в Хадите (Ирак) (112 км)
Погода в Кербеле (Ирак) (113 км)
Погода в Эль-Халисе (Ирак) (120 км)
Погода в Тикрите (Ирак) (129 км)
Погода в Айн Аль-Тамаре (Ирак) (130 км)
Погода в Хелле (Ирак) (153 км)
Погода в Бейджи (Ирак) (165 км)
Погода в Ане (Ирак) (170 км)

Пояснения к столбцам:

Ветер - указаны скорость ветра в м/с - средняя за 10 мин, порывы в срок и между сроками (в фигурных скобках) и направление, откуда дует ветер: С - северный, СВ - северо-восточный, В - восточный, ЮВ - юго-восточный, Ю - южный, ЮЗ - юго-западный, З - западный, СЗ - северо-западный.
Видимость - горизонтальная дальность видимости в метрах или километрах. При видимости от 1 до 10 км при отсутствии осадков обычно наблюдается дымка, при ухудшении видимости до 1 км и менее - туман. В сухую погоду видимость может ухудшаться дымом, пылью или мглою.
Явления - указаны атмосферные явления, наблюдавшиеся в срок или в последний час перед сроком; фигурными скобками обозначены явления, наблюдавшиеся между сроками (за 1-3 часа до срока); квадратными скобками обозначены град или гололедные отложения с указанием их диаметра в мм.
Облачность - указаны через наклонную черту общая и нижняя облачность в баллах и высота нижней границы облаков в метрах; квадратными скобками обозначены формы облаков: Ci - перистые, Cs - перисто-слоистые, Cc - перисто-кучевые, Ac - высококучевые, As - высокослоистые, Sc - слоисто-кучевые, Ns - слоисто-дождевые, Cu - кучевые, Cb - кучево-дождевые. Подробнее классификацию облаков см. в Атласе облаков (PDF).
T - Температура воздуха - температура, измеренная на высоте 2 м над землей.
Td - Температура точки росы - температура, при понижении до которой содержащийся в воздухе водяной пар достигнет насыщения.
f - Относительная влажность воздуха - влажноcть воздуха, измеренная на высоте 2 м над землей.
Te - Эффективная температура - температура, которую ощущает одетый по сезону человек в тени. Характеристика душности погоды. При расчете учитывается влияние влажности воздуха и скорости ветра на теплоощущения человека.
Tes - Эффективная температура на солнце - температура, которую ощущает человек, с поправкой на солнечный нагрев. Характеристика знойности погоды. Зависит от высоты солнца над горизонтом, облачности и скорости ветра. Ночью, в пасмурную погоду, а также при ветре 12 м/с и более поправка равна нулю.
P - Атмосферное давление - приведенное к уровню моря атмосферное давление.
Po - Атмосферное давление - измеренное на уровне метеостанции атмосферное давление.
Tmin - Минимальная температура - минимум температуры воздуха на высоте 2 м над землей.
Tmax - Максимальная температура - максимум температуры воздуха на высоте 2 м над землей.
R - Количество осадков - Количество выпавших осадков за период времени, мм. При наведении курсора мыши на число - период времени, за который выпало указанное количество осадков.
R24 - Количество осадков - Количество выпавших осадков за 24 часа, мм.
S - Снежный покров - Высота снежного покрова, см. При наведении курсора мыши на число - состояние снежного покрова и степень покрытия местности в баллах.